Regional Weather Roundup
Issued by NWS

Home | Current Version | Previous Version | Text Only | Print | Product List | Glossary Off
Versions: 1 2 3 4 5 6 7 8 9 10 11 12 13 14 15 16 17 18 19 20 21 22 23 24 25 26 27 28 29 30 31 32 33 34 35 36 37 38 39 40 41 42 43 44 45 46 47 48 49 50

000
ASUS43 KDTX 310901
RWRMI
MICHIGAN HOURLY REGIONAL WEATHER ROUNDUP
NATIONAL WEATHER SERVICE DETROIT/PONTIAC MI
500 AM EDT TUE MAY 31 2016

NOTE: "FAIR" INDICATES FEW OR NO CLOUDS BELOW 12,000 FEET WITH NO
SIGNIFICANT WEATHER AND/OR OBSTRUCTION TO VISIBILITY.

MIZ047>049-052>055-059>063-066>070-074>076-081>083-311000-
SOUTHEAST LOWER MICHIGAN

CITY           SKY/WX    TMP DP  RH WIND       PRES   REMARKS
ADRIAN         CLEAR     59  52  77 N7        30.01R
ALMA           CLEAR     49  49  98 CALM      30.03S
ANN ARBOR      CLEAR     52  50  93 CALM      30.00S
BAD AXE        CLEAR     49  49  98 CALM      30.01S
CARO           FOG       48  46  95 CALM      30.01R VSB 1
DETROIT CITY   CLEAR     65  51  60 N5        30.00R
DETROIT        PTCLDY    63  51  65 N5        30.00R
FLINT          CLEAR     56  51  84 CALM      30.02R
GROSSE ILE     CLEAR     63  55  77 N3        29.98R
HILLSDALE      CLEAR     56  51  83 CALM      30.02S
HOWELL         CLEAR     54  50  86 CALM      30.02R

CITY           SKY/WX    TMP DP  RH WIND       PRES   REMARKS
JACKSON        CLEAR     55  52  89 CALM      30.01F
LAMBERTVILLE   CLEAR     57  53  88 CALM      30.00R
LANSING        CLEAR     56  52  86 CALM      30.03R
LAPEER         FAIR      53  51  94 W6        30.02R
MASON          CLEAR     55  53  92 CALM      30.02S
MONROE         CLEAR     61  54  78 W6        29.99R
MT. CLEMENS    CLEAR     62  54  76 NW2       29.99R
PONTIAC        CLEAR     58  50  75 CALM      30.01R
PORT HOPE        N/A     57  55  93 CALM      29.99S
PORT HURON     CLEAR     54  54 100 CALM      30.00R
TRI CITIES     CLEAR     57  51  80 W3        30.03R
MIDLAND        FAIR      49  49  99 CALM      30.02S
TROY           CLEAR     65  51  59 CALM      30.02R
SAGINAW HB     CLEAR     55  50  82 W3        30.01S
$$
MIZ043>046-050>051-056>058-064>065-071>073-077>080-311000-
SOUTHWEST LOWER MICHIGAN

CITY           SKY/WX    TMP DP  RH WIND       PRES   REMARKS
BATTLE CREEK   CLOUDY    57  53  86 CALM      30.02S
BENTON HARBOR  CLOUDY    57  54  89 CALM      29.99F
BIG RAPIDS     CLEAR     51  50  97 N5        30.04R
COLDWATER      CLOUDY    56  56 100 CALM      30.01S
FREMONT        FAIR      53  53 100 CALM      30.01F
HOLLAND        CLEAR     56  54  93 CALM      30.01F
GRAND RAPIDS   CLEAR     57  53  86 CALM      30.02S
IONIA          FAIR      54  52  92 CALM      30.02S
KALAMAZOO      CLOUDY    57  52  83 CALM      30.01F
LUDINGTON      CLEAR     52  52 100 N3        30.03R FOG
MARSHALL       CLOUDY    55  54  97 CALM      30.01F
MOUNT PLEASANT CLEAR     51  50  96 CALM      30.02S FOG
MUSKEGON         N/A    N/A N/A N/A CALM      30.01S
SOUTH HAVEN    CLOUDY    55  55  98 CALM      30.00F
$$
MIZ016>042-311000-
NORTHERN LOWER MICHIGAN

CITY           SKY/WX    TMP DP  RH WIND       PRES   REMARKS
ALPENA         CLEAR     53  49  86 SW5       30.02S
BEAVER ISLAND  CLOUDY    48  45  90 N5        30.06S
BELLAIRE       CLEAR     48  47  96 CALM      30.05S
CADILLAC       CLEAR     49  47  90 CALM      30.05R
CHARLEVOIX     CLEAR     52  48  87 N5        30.08R
FRANKFORT      CLEAR     51  51  97 CALM      30.03R
GAYLORD        CLEAR     52  48  86 CALM      30.05R
GRAYLING       CLEAR     46  46  97 CALM      30.06R
HARBOR SPRINGS CLEAR     51  48  90 CALM      30.05R
HOUGHTON LAKE  CLEAR     50  49  96 CALM      30.05R
OSCODA         CLEAR     51  47  83 CALM      30.01S
PELLSTON       CLEAR     49  46  90 W5        30.05R
ROGERS CITY    CLEAR     51  47  86 NW5       30.04R
TRAVERSE CITY  PTCLDY    52  50  93 CALM      30.04R
$$
MIZ007>008-015-311000-
EASTERN UPPER MICHIGAN

CITY           SKY/WX    TMP DP  RH WIND       PRES   REMARKS
KINROSS          N/A     46  46 100 NW8       30.03S
MACKINAC ISLAN CLEAR     48  47  98 N5        30.04R
NEWBERRY       CLEAR     42  41  94 N5        30.06R
S. S. MARIE    MOCLDY    47  44  90 W9        30.03S
MUNISING         N/A     45  42  89 N8        30.08R
$$
MIZ004>006-011>014-085-311000-
CENTRAL UPPER MICHIGAN

CITY           SKY/WX    TMP DP  RH WIND       PRES   REMARKS
MANISTIQUE     PTCLDY    44  42  93 N3        30.07R
ESCANABA       CLOUDY    48  41  76 NE6       30.07R
MENOMINEE      CLOUDY    52  46  82 NE5       30.08R
SAWYER-GWINN   PTCLDY    42  39  89 NE12      30.08S
$$
MIZ001>003-009>011-084-311000-
WESTERN UPPER MICHIGAN

CITY           SKY/WX    TMP DP  RH WIND       PRES   REMARKS
IRON MOUNTAIN  MOCLDY    48  42  80 N3        30.05F
HOUGHTON       MOCLDY    45  39  79 E10       30.09R
COPPER HARBOR    N/A     43  39  86 VRB5      30.11S
IRONWOOD       CLOUDY    52  46  82 E13       29.99F
$$

ABBREVIATIONS USED IN REMARKS
   TC - TEMPERATURE IN CELSIUS
  WCI - WIND CHILL INDEX
   HX - HEAT INDEX
  VSB - VISIBILITY





USA.gov is the U.S. government's official web portal to all federal, state and local government web resources and services.